Stündliche Wetter Dabkow

Heute, 31 Oktober, Samstag

Zeit Temperatur Niederschläge Wind Luftdruck Luftfeuchtigkeit
00:00 +7°C° 0.2 mm 2 m/S 744 mmHg 79%
01:00 +8°C° 0.2 mm 1 m/S 744 mmHg 82%
02:00 +8°C° 0.2 mm 1 m/S 744 mmHg 85%
03:00 +8°C° 0.1 mm 1 m/S 744 mmHg 85%
04:00 +8°C° 0.1 mm 1 m/S 744 mmHg 85%
05:00 +8°C° 0.1 mm 1 m/S 744 mmHg 85%
06:00 +8°C° 0 mm 1 m/S 744 mmHg 86%
07:00 +7°C° 0 mm 1 m/S 745 mmHg 87%
08:00 +7°C° 0 mm 1 m/S 745 mmHg 88%
09:00 +8°C° 0 mm 1 m/S 746 mmHg 82%
10:00 +9°C° 0 mm 1 m/S 746 mmHg 76%
11:00 +11°C° 0 mm 1 m/S 747 mmHg 71%
12:00 +10°C° 0 mm 2 m/S 747 mmHg 68%
13:00 +10°C° 0 mm 2 m/S 747 mmHg 66%
14:00 +11°C° 0 mm 3 m/S 747 mmHg 63%
15:00 +10°C° 0 mm 3 m/S 747 mmHg 67%
16:00 +9°C° 0 mm 3 m/S 747 mmHg 70%
17:00 +9°C° 0 mm 2 m/S 747 mmHg 74%
18:00 +8°C° 0 mm 2 m/S 748 mmHg 76%
19:00 +7°C° 0 mm 2 m/S 748 mmHg 78%
20:00 +7°C° 0 mm 2 m/S 748 mmHg 80%
21:00 +6°C° 0 mm 2 m/S 748 mmHg 81%
22:00 +7°C° 0 mm 1 m/S 748 mmHg 83%
23:00 +6°C° 0 mm 1 m/S 748 mmHg 84%

Morgen, 1 November, Sonntag

Zeit Temperatur Niederschläge Wind Luftdruck Luftfeuchtigkeit
00:00 +6°C° 0 mm 1 m/S 749 mmHg 85%
01:00 +6°C° 0 mm 1 m/S 749 mmHg 87%
02:00 +6°C° 0 mm 1 m/S 749 mmHg 88%
03:00 +5°C° 0 mm 1 m/S 749 mmHg 89%
04:00 +5°C° 0 mm 1 m/S 748 mmHg 90%
05:00 +5°C° 0 mm 1 m/S 748 mmHg 91%
06:00 +5°C° 0 mm 1 m/S 748 mmHg 91%
07:00 +5°C° 0 mm 1 m/S 748 mmHg 92%
08:00 +5°C° 0 mm 1 m/S 748 mmHg 92%
09:00 +6°C° 0 mm 1 m/S 748 mmHg 86%
10:00 +8°C° 0 mm 1 m/S 748 mmHg 80%
11:00 +9°C° 0 mm 1 m/S 748 mmHg 73%
12:00 +10°C° 0 mm 1 m/S 747 mmHg 70%
13:00 +10°C° 0 mm 2 m/S 747 mmHg 66%
14:00 +12°C° 0 mm 2 m/S 747 mmHg 62%
15:00 +11°C° 0 mm 1 m/S 746 mmHg 66%
16:00 +10°C° 0 mm 1 m/S 746 mmHg 71%
17:00 +9°C° 0 mm 1 m/S 746 mmHg 75%
18:00 +8°C° 0 mm 1 m/S 746 mmHg 77%
19:00 +7°C° 0 mm 0 m/S 746 mmHg 79%
20:00 +6°C° 0 mm 0 m/S 746 mmHg 81%
21:00 +7°C° 0 mm 1 m/S 746 mmHg 81%
22:00 +7°C° 0 mm 1 m/S 746 mmHg 82%
23:00 +7°C° 0 mm 1 m/S 745 mmHg 82%

übermorgen, 2 November, Montag

Zeit Temperatur Niederschläge Wind Luftdruck Luftfeuchtigkeit
00:00 +7°C° 0 mm 1 m/S 745 mmHg 80%
01:00 +6°C° 0 mm 2 m/S 745 mmHg 79%
02:00 +6°C° 0 mm 2 m/S 745 mmHg 77%
03:00 +6°C° 0 mm 2 m/S 745 mmHg 77%
04:00 +6°C° 0 mm 2 m/S 745 mmHg 76%
05:00 +6°C° 0 mm 2 m/S 745 mmHg 75%
06:00 +7°C° 0 mm 2 m/S 745 mmHg 76%
07:00 +7°C° 0 mm 2 m/S 745 mmHg 78%
08:00 +7°C° 0 mm 2 m/S 745 mmHg 79%
09:00 +8°C° 0.2 mm 3 m/S 745 mmHg 80%
10:00 +8°C° 0.2 mm 3 m/S 745 mmHg 82%
11:00 +8°C° 0.2 mm 3 m/S 745 mmHg 83%
12:00 +8°C° 0.3 mm 3 m/S 745 mmHg 85%
13:00 +8°C° 0.3 mm 3 m/S 745 mmHg 88%
14:00 +9°C° 0.3 mm 3 m/S 745 mmHg 90%
15:00 +9°C° 0.2 mm 3 m/S 745 mmHg 90%
16:00 +9°C° 0.2 mm 3 m/S 745 mmHg 90%
17:00 +9°C° 0.2 mm 3 m/S 745 mmHg 90%
18:00 +9°C° 0.1 mm 3 m/S 745 mmHg 89%
19:00 +9°C° 0.1 mm 3 m/S 745 mmHg 89%
20:00 +9°C° 0.1 mm 3 m/S 745 mmHg 89%
21:00 +9°C° 0 mm 3 m/S 745 mmHg 89%
22:00 +9°C° 0 mm 3 m/S 745 mmHg 90%
23:00 +9°C° 0 mm 3 m/S 745 mmHg 90%

3 November, Dienstag

Zeit Temperatur Niederschläge Wind Luftdruck Luftfeuchtigkeit
00:00 +9°C° 0 mm 3 m/S 745 mmHg 90%
01:00 +9°C° 0 mm 3 m/S 745 mmHg 90%
02:00 +10°C° 0 mm 3 m/S 745 mmHg 91%
03:00 +10°C° 0.1 mm 3 m/S 745 mmHg 91%
04:00 +10°C° 0.1 mm 3 m/S 745 mmHg 92%
05:00 +10°C° 0.1 mm 3 m/S 745 mmHg 92%
06:00 +10°C° 0.4 mm 3 m/S 745 mmHg 92%
07:00 +10°C° 0.4 mm 3 m/S 745 mmHg 92%
08:00 +10°C° 0.4 mm 3 m/S 745 mmHg 93%
09:00 +11°C° 0 mm 3 m/S 745 mmHg 90%
10:00 +12°C° 0 mm 3 m/S 746 mmHg 87%
11:00 +13°C° 0 mm 3 m/S 746 mmHg 84%
12:00 +14°C° 0 mm 3 m/S 746 mmHg 82%
13:00 +16°C° 0 mm 3 m/S 746 mmHg 80%
14:00 +17°C° 0 mm 3 m/S 746 mmHg 78%
15:00 +16°C° 0.1 mm 3 m/S 746 mmHg 82%
16:00 +16°C° 0.1 mm 3 m/S 746 mmHg 87%
17:00 +14°C° 0.1 mm 3 m/S 746 mmHg 91%
18:00 +14°C° 0.1 mm 3 m/S 747 mmHg 92%
19:00 +13°C° 0.1 mm 3 m/S 747 mmHg 93%
20:00 +13°C° 0.1 mm 3 m/S 748 mmHg 93%
21:00 +13°C° 0 mm 3 m/S 748 mmHg 89%
22:00 +12°C° 0 mm 3 m/S 748 mmHg 86%
23:00 +12°C° 0 mm 4 m/S 748 mmHg 82%

4 November, Mittwoch

Zeit Temperatur Niederschläge Wind Luftdruck Luftfeuchtigkeit
00:00 +11°C° 0.1 mm 3 m/S 748 mmHg 83%
01:00 +11°C° 0.1 mm 3 m/S 748 mmHg 85%
02:00 +10°C° 0.1 mm 2 m/S 748 mmHg 86%
03:00 +10°C° 0.1 mm 2 m/S 748 mmHg 87%
04:00 +10°C° 0.1 mm 2 m/S 748 mmHg 87%
05:00 +11°C° 0.1 mm 1 m/S 748 mmHg 88%
06:00 +11°C° 0 mm 1 m/S 748 mmHg 89%
07:00 +11°C° 0 mm 1 m/S 748 mmHg 89%
08:00 +11°C° 0 mm 1 m/S 748 mmHg 90%
09:00 +11°C° 0 mm 1 m/S 749 mmHg 89%
10:00 +11°C° 0 mm 1 m/S 749 mmHg 88%
11:00 +11°C° 0 mm 1 m/S 749 mmHg 88%
12:00 +11°C° 0.1 mm 1 m/S 749 mmHg 88%
13:00 +10°C° 0.1 mm 2 m/S 749 mmHg 88%
14:00 +10°C° 0.1 mm 2 m/S 749 mmHg 89%
15:00 +10°C° 0.3 mm 2 m/S 750 mmHg 90%
16:00 +10°C° 0.3 mm 3 m/S 750 mmHg 91%
17:00 +9°C° 0.3 mm 3 m/S 750 mmHg 93%
18:00 +9°C° 0.3 mm 3 m/S 751 mmHg 92%
19:00 +8°C° 0.3 mm 3 m/S 751 mmHg 92%
20:00 +8°C° 0.3 mm 3 m/S 752 mmHg 91%
21:00 +8°C° 0.1 mm 3 m/S 752 mmHg 91%
22:00 +8°C° 0.1 mm 3 m/S 752 mmHg 91%
23:00 +7°C° 0.1 mm 3 m/S 753 mmHg 90%

5 November, Donnerstag

Zeit Temperatur Niederschläge Wind Luftdruck Luftfeuchtigkeit
00:00 +7°C° 0.1 mm 3 m/S 753 mmHg 90%
01:00 +6°C° 0.1 mm 4 m/S 753 mmHg 89%
02:00 +6°C° 0.1 mm 4 m/S 753 mmHg 89%
03:00 +6°C° 0.1 mm 4 m/S 754 mmHg 88%
04:00 +7°C° 0.1 mm 3 m/S 754 mmHg 86%
05:00 +7°C° 0.1 mm 3 m/S 754 mmHg 85%
06:00 +7°C° 0.1 mm 3 m/S 755 mmHg 85%
07:00 +7°C° 0.1 mm 3 m/S 755 mmHg 85%
08:00 +5°C° 0.1 mm 3 m/S 756 mmHg 85%
09:00 +7°C° 0 mm 3 m/S 756 mmHg 84%
10:00 +7°C° 0 mm 3 m/S 756 mmHg 84%
11:00 +7°C° 0 mm 3 m/S 757 mmHg 83%
12:00 +7°C° 0 mm 3 m/S 757 mmHg 81%
13:00 +8°C° 0 mm 3 m/S 757 mmHg 78%
14:00 +8°C° 0 mm 3 m/S 757 mmHg 76%
15:00 +8°C° 0 mm 2 m/S 757 mmHg 78%
16:00 +7°C° 0 mm 2 m/S 757 mmHg 79%
17:00 +7°C° 0 mm 2 m/S 757 mmHg 81%
18:00 +6°C° 0 mm 2 m/S 757 mmHg 83%
19:00 +6°C° 0 mm 2 m/S 758 mmHg 85%
20:00 +5°C° 0 mm 2 m/S 758 mmHg 86%
21:00 +5°C° 0 mm 2 m/S 758 mmHg 88%
22:00 +4°C° 0 mm 2 m/S 758 mmHg 89%
23:00 +4°C° 0 mm 2 m/S 759 mmHg 90%
Mehr zeigen

Wir brauchen deine Erlaubnis

Meteoprog und unser Service Anbieter werden persönliche Daten aufbewahren, so wie Cookies, Geräte Bezeichnung oder ähnliche Technologien von deinem Gerät und Prozess, so wie Persönliche Daten Inhalte und Werbungen, genauso wie social Media und den Verkehr zu analysieren.

  • Aufbewahrung und/oder Zugang zu deiner Geräte Informationen.

    Cookies, Geräte Bezeichnung oder andere Informationen, können aufbewahrt oder Zugang zu deinem Gerät erhalten, für den Grund, der oben angegeben wird.

  • Personalisierte Werbung und Inhalte, Messungen, Einblick in das Publikum und Produkt Entwicklung.

    Werbungen und Inhalte können personalisiert werden, basierend auf ein Profil. Mehr Daten können besser personalisierte Werbungen und Inhalte hinzufügen. Werbung und Inhalte können gezeigt und gemessen werden. Einblicke über das Publikum, welche die Werbung gesehen haben und den Inhalt, können abgeleitet werden. So wie Daten können genutzt werden, um es zu verbessern oder die Benutzer Erfahrung zu verbessern das System und die Software.

Wenn du “Ich stimme zu” klickst, erlaubst du uns, die Cookies zu benutzen die Geräte Bezeichnung, den Web oder ähnliche Technologien zu benutzen. Deine Settings, können in deinem Gerät bei deinem Browser geändert werden.

Für den bestimmten Zweck, berechtigten Interessen beruhen darauf, mehr als auf den Inhalt. Du kannst mehr darüber in unseren Privaten und Cookie Politik lesen.